User: anonymous   Login
Location: Unspecified
(0.0000°N, 0.0000°E)
Time: 23:51:01
(UTC+00:00)
Language:

STARLINK-35852 - Orbit

View from above orbital plane
View from above orbital plane
View from above satellite
View from above satellite

Ground track
Ground track

The orbit is defined by the following mean orbital elements,

1 66889U          26144.95632405 +.00000000 +00000-0 +77098-3 0 00005
2 66889  53.1605  29.7232 0001146  84.0899 276.0234 15.34392350    03
Epoch (UTC): 24 May 2026 22:57:06
Eccentricity: 0.0001146
inclination: 53.1605°
perigee height: 462 km
apogee height: 464 km
right ascension of ascending node: 29.7232°
argument of perigee: 84.0899°
revolutions per day: 15.34392350
mean anomaly at epoch: 276.0234°

The dashed part of the orbit path shows where the satellite is in the earth's shadow,  

DLR